Powrót do katalogu

STARLINK-32759

AktywnyŁącznośćVLEO
NORAD 62751·PAYLOAD·🇺🇸 United States

Wystrzelony Jan 21, 2025 z Cape Canaveral Space Force Station

Loading…

Następne Przeloty (najbliższe 24 godziny)

TLE

ŚwieżeSource: CelesTrak SupGP

Epoka: Sep 15, 2026, 02:38 UTC

1 62751C 25014S   26258.11020833 -.00006675  00000+0 -24180-3 0  2585
2 62751  42.9995 168.3643 0001192 269.7401  95.2562 15.27576103    11

Śledź STARLINK-32759 w czasie rzeczywistym z AllMySat

Download on the App Store